MST,Max TemperatureF,Mean TemperatureF,Min TemperatureF,Max Dew PointF,MeanDew PointF,Min DewpointF,Max Humidity, Mean Humidity, Min Humidity, Max Sea Level PressureIn, Mean Sea Level PressureIn, Min Sea Level PressureIn, Max VisibilityMiles, Mean VisibilityMiles, Min VisibilityMiles, Max Wind SpeedMPH, Mean Wind SpeedMPH, Max Gust SpeedMPH,PrecipitationIn, CloudCover, Events, WindDirDegrees
2012-12-1,60,48,35,32,27,21,70,48,29,30.02,29.95,29.86,10,10,10,12,4,,0.00,1,,62
2012-12-2,60,45,30,28,24,19,80,52,27,30.01,29.84,29.64,10,10,10,10,5,,0.00,0,,35
2012-12-3,60,44,28,30,17,9,51,29,17,30.21,29.97,29.64,10,10,5,38,17,52,0.00,1,,334
2012-12-4,51,38,24,21,15,5,64,43,28,30.33,30.24,30.17,10,10,10,8,3,,0.00,0,,137
2012-12-5,57,45,33,30,26,19,70,46,33,30.17,29.97,29.86,10,10,10,21,5,29,0.00,1,,8
2012-12-6,46,36,26,34,27,19,80,60,46,30.07,29.95,29.86,10,10,10,15,7,20,0.00,3,,79
2012-12-7,46,34,21,28,21,16,93,64,37,29.95,29.87,29.79,10,10,10,17,6,20,0.00,1,,118
2012-12-8,46,32,19,27,17,1,93,61,31,29.93,29.78,29.64,10,10,10,34,10,46,0.00,2,,1
2012-12-9,26,17,8,5,0,-2,73,44,31,30.17,30.08,29.93,10,10,10,23,12,29,0.00,0,,11
2012-12-10,42,25,8,19,7,-2,93,55,23,29.99,29.89,29.81,10,10,10,24,6,30,0.00,3,,41
2012-12-11,41,29,17,19,14,9,93,62,29,29.99,29.87,29.77,10,10,10,14,7,21,0.00,2,,145
2012-12-12,57,37,17,21,14,7,80,46,19,29.89,29.79,29.74,10,10,10,24,7,33,0.00,0,,216
2012-12-13,46,36,26,21,15,10,60,47,32,30.03,29.95,29.89,10,10,10,10,5,,0.00,0,,13
2012-12-14,41,32,23,19,16,12,74,55,36,29.89,29.66,29.52,10,10,10,9,4,,0.00,1,,7
2012-12-15,42,34,26,28,23,12,93,64,49,29.73,29.69,29.60,10,10,10,9,4,,0.00,4,,90
2012-12-16,37,30,21,28,22,5,100,73,32,29.79,29.72,29.67,10,8,1,21,5,26,0.00,5,,112
2012-12-17,51,33,15,27,17,7,79,55,26,29.76,29.63,29.54,10,10,10,25,7,31,0.00,1,,322
2012-12-18,42,33,24,28,22,16,86,65,39,29.79,29.72,29.67,10,10,9,21,6,22,0.00,7,,36
2012-12-19,24,15,6,21,10,-8,93,66,42,30.10,29.89,29.70,10,8,1,29,13,37,0.00,5,,351
2012-12-20,42,22,1,21,7,-9,92,59,36,30.18,30.15,30.10,10,10,10,8,5,,0.00,0,,170
2012-12-21,46,30,15,19,14,5,86,50,25,30.19,30.12,30.06,10,10,10,8,3,,0.00,0,,347
2012-12-22,46,30,14,19,12,1,80,49,23,30.06,29.99,29.89,10,10,10,9,4,,0.00,0,,358
2012-12-23,51,33,15,21,14,7,86,48,24,29.96,29.90,29.85,10,10,10,25,6,34,0.00,0,,185
2012-12-24,35,26,15,21,16,12,93,70,44,29.96,29.82,29.72,10,8,2,18,8,,0.00,5,,32
2012-12-25,15,8,1,12,6,-2,100,83,67,30.22,30.12,29.97,10,7,0,12,6,,0.00,4,,91
2012-12-26,19,10,0,16,6,-2,93,86,68,30.00,29.77,29.63,10,7,0,8,1,,0.00,5,,16
2012-12-27,24,16,8,19,12,5,100,87,74,29.88,29.72,29.64,8,5,0,7,2,,0.01,6,,150
2012-12-28,28,16,5,19,8,-6,100,75,39,30.08,29.97,29.87,10,8,0,15,2,16,0.00,3,,197
2012-12-29,26,14,1,10,5,-9,92,66,46,30.15,30.05,29.89,10,10,10,6,2,,0.00,0,,5
2012-12-30,32,18,3,18,8,-8,85,63,44,30.02,29.95,29.87,10,10,10,13,5,,0.00,1,,40
2012-12-31,26,18,10,18,12,5,100,81,64,30.03,29.98,29.95,10,9,3,8,2,,0.00,3,,90